This is the latest recevied weather packets stored in our database for station/object WA4IKQ. If no packets are shown the sender has not sent any weather packets the latest 10 day(s).
| Time | Temp. | Humidity | Pressure | Rain* | Wind** | Luminosity | Snow |
|---|---|---|---|---|---|---|---|
| 1777625720 | 23.89° C | 86% | 1010.3 hPa | 0 mm | 0 m/s | - | - |
| 1777625586 | 23.89° C | 86% | 1010.3 hPa | 0 mm | 0 m/s | - | - |
| 1777625349 | 23.89° C | 86% | 1010.3 hPa | 0 mm | 0.89 m/s, 221° | - | - |
| 1777625018 | 23.89° C | 86% | 1010.4 hPa | 0 mm | 2.24 m/s, 198° | - | - |
| 1777624987 | 23.89° C | 86% | 1010.4 hPa | 0 mm | 2.24 m/s, 198° | - | - |
| 1777624736 | 23.89° C | 86% | 1010.5 hPa | 0 mm | 1.34 m/s, 246° | - | - |
| 1777624210 | 23.89° C | 86% | 1010.3 hPa | 0 mm | 2.24 m/s, 250° | - | - |
| 1777623816 | 23.89° C | 86% | 1010.4 hPa | 0 mm | 0.89 m/s, 165° | - | - |
| 1777623785 | 23.89° C | 86% | 1010.4 hPa | 0 mm | 0.89 m/s, 165° | - | - |
| 1777623599 | 23.89° C | 86% | 1010.3 hPa | 0 mm | 1.34 m/s, 222° | - | - |
| 1777623547 | 23.89° C | 86% | 1010.3 hPa | 0 mm | 1.34 m/s, 222° | - | - |
| 1777623485 | 23.89° C | 86% | 1010.3 hPa | 0 mm | 1.34 m/s, 222° | - | - |
| 1777623225 | 23.89° C | 86% | 1010.4 hPa | 0 mm | 1.34 m/s, 193° | - | - |
| 1777622965 | 23.89° C | 86% | 1010.3 hPa | 0 mm | 1.34 m/s, 207° | - | - |
| 1777622930 | 23.89° C | 86% | 1010.3 hPa | 0 mm | 1.34 m/s, 207° | - | - |
| 1777622886 | 23.89° C | 86% | 1010.3 hPa | 0 mm | 1.34 m/s, 207° | - | - |
| 1777622677 | 23.89° C | 85% | 1010.3 hPa | 0 mm | 2.24 m/s, 218° | - | - |
| 1777622586 | 23.89° C | 85% | 1010.3 hPa | 0 mm | 2.24 m/s, 218° | - | - |
| 1777622337 | 23.89° C | 85% | 1010.3 hPa | 0 mm | 0.45 m/s, 219° | - | - |
| 1777622289 | 23.89° C | 85% | 1010.3 hPa | 0 mm | 0.45 m/s, 219° | - | - |
| 1777622071 | 23.89° C | 85% | 1010.3 hPa | 0 mm | 1.34 m/s, 198° | - | - |
| 1777621987 | 23.89° C | 85% | 1010.3 hPa | 0 mm | 1.34 m/s, 198° | - | - |
| 1777621925 | 23.89° C | 85% | 1010.3 hPa | 0 mm | 1.79 m/s, 210° | - | - |
| 1777621608 | 23.89° C | 85% | 1010.3 hPa | 0 mm | 1.34 m/s, 203° | - | - |
| 1777621387 | 23.89° C | 85% | 1010.3 hPa | 0 mm | 1.34 m/s, 203° | - | - |
* Rain latest hour (hover to see other rain measurements)
** Current wind speed in m/s (hover to see current wind gust speed)